Fulton, NY

2:59 AM EST on February 21, 2017 (GMT -0500)
Oswego County

Weather History for KFZY - August, 2013

Change the Weather History Date:

Thursday, August 29, 2013

  Actual Average (KSYR) Record (KSYR)
Temperature  
Mean Temperature 72 °F -  
Max Temperature 84 °F 77 °F 93 °F (1953)
Min Temperature 60 °F 59 °F 42 °F (1986)
Cooling Degree Days 7    
Growing Degree Days 22 (Base 50)    
Moisture  
Dew Point 64 °F    
Average Humidity 89    
Maximum Humidity 100    
Minimum Humidity 55    
Precipitation  
Precipitation 0.00 in - - ()
Sea Level Pressure  
Sea Level Pressure 29.99 in    
Wind  
Wind Speed 2 mph (NNW)    
Max Wind Speed 12 mph    
Max Gust Speed 18 mph    
Visibility 4 miles    
Events Fog    
Averages and records for this station are not official NWS values.
T = Trace of Precipitation, MM = Missing Value Source: NWS Daily Summary

Daily Weather History Graph

Daily Weather History Graph

Search for Another Location

Airport or City:

Trip Planner

Search our weather history database for the weather conditions in past years. The results will help you decide how hot, cold, wet, or windy it might be!

Date:

Astronomy

Aug. 29, 2013 Rise Set
Actual Time 6:26 AM EDT 7:45 PM EDT
Civil Twilight 5:56 AM EDT 8:14 PM EDT
Nautical Twilight 5:21 AM EDT 8:50 PM EDT
Astronomical Twilight 4:43 AM EDT 9:27 PM EDT
Moon 12:11 AM EDT (8/29) 3:17 PM EDT (8/29)
Length of Visible Light 14h 18m
Length of Day
13h 18m
Last Quarter, 38% of the Moon is Illuminated
Aug 29
Last Quarter
Sep 5
New
Sep 12
First Quarter
Sep 19
Full
Sep 26
Last Quarter

Hourly Weather History & Observations

Time (EDT) Temp. Heat Index Dew Point Humidity Pressure Visibility Wind Dir Wind Speed Gust Speed Precip Events Conditions
12:54 AM 69.1 °F - 64.9 °F 87% 29.93 in 10.0 mi NNE 4.6 mph - N/A   Clear
1:54 AM 69.1 °F - 64.9 °F 87% 29.93 in 10.0 mi NE 3.5 mph - N/A   Clear
2:54 AM 64.9 °F - 63.0 °F 93% 29.94 in 6.0 mi Calm Calm - N/A   Clear
3:25 AM 64.4 °F - 62.6 °F 94% 29.94 in 1.5 mi Calm Calm - N/A   Clear
3:32 AM 62.6 °F - 62.6 °F 100% 29.94 in 0.8 mi Calm Calm - N/A   Clear
3:54 AM 63.0 °F - 62.1 °F 97% 29.94 in 0.5 mi Calm Calm - N/A Fog Fog
4:45 AM 64.4 °F - 62.6 °F 94% 29.96 in 0.5 mi Calm Calm - N/A Fog Fog
4:54 AM 62.1 °F - 61.0 °F 96% 29.96 in 0.8 mi Calm Calm - N/A   Mist
4:56 AM 62.6 °F - 60.8 °F 94% 29.96 in 1.5 mi Calm Calm - N/A   Clear
4:58 AM 62.6 °F - 60.8 °F 94% 29.96 in 3.0 mi Calm Calm - N/A   Clear
5:02 AM 62.6 °F - 60.8 °F 94% 29.96 in 1.8 mi Calm Calm - N/A   Clear
5:06 AM 62.6 °F - 62.6 °F 100% 29.96 in 0.8 mi Calm Calm - N/A   Clear
5:39 AM 62.6 °F - 60.8 °F 94% 29.97 in 1.2 mi Calm Calm - N/A   Clear
5:54 AM 62.1 °F - 61.0 °F 96% 29.96 in 2.0 mi Calm Calm - N/A   Clear
5:58 AM 62.6 °F - 60.8 °F 94% 29.97 in 1.0 mi Calm Calm - N/A   Clear
6:11 AM 62.6 °F - 60.8 °F 94% 29.97 in 0.5 mi Calm Calm - N/A Fog Fog
6:41 AM 60.8 °F - 60.8 °F 100% 29.98 in 0.2 mi Calm Calm - N/A Fog Fog
6:46 AM 60.8 °F - 59.0 °F 94% 29.99 in 1.0 mi Calm Calm - N/A   Clear
6:54 AM 61.0 °F - 60.1 °F 97% 29.99 in 0.5 mi Calm Calm - N/A Fog Fog
7:03 AM 62.6 °F - 60.8 °F 94% 30.00 in 1.2 mi Calm Calm - N/A   Clear
7:07 AM 62.6 °F - 62.6 °F 100% 30.00 in 0.8 mi Calm Calm - N/A   Clear
7:15 AM 62.6 °F - 60.8 °F 94% 30.00 in 1.2 mi Calm Calm - N/A   Clear
7:23 AM 62.6 °F - 62.6 °F 100% 30.00 in 5.0 mi Calm Calm - N/A   Clear
7:54 AM 66.9 °F - 66.0 °F 97% 30.00 in 7.0 mi Calm Calm - N/A   Clear
8:54 AM 73.0 °F - 66.9 °F 81% 30.02 in 10.0 mi Calm Calm - N/A   Clear
9:11 AM 73.4 °F - 66.2 °F 78% 30.03 in 10.0 mi Calm Calm - N/A   Partly Cloudy
9:54 AM 75.9 °F - 66.9 °F 74% 30.02 in 10.0 mi Variable 3.5 mph - N/A   Clear
10:54 AM 78.1 °F - 66.9 °F 68% 30.02 in 10.0 mi Variable 3.5 mph - N/A   Partly Cloudy
11:54 AM 82.0 °F 84.9 °F 68.0 °F 62% 30.03 in 10.0 mi Variable 4.6 mph - N/A   Mostly Cloudy
12:54 PM 84.0 °F 86.3 °F 66.0 °F 55% 30.02 in 10.0 mi North 9.2 mph - N/A   Mostly Cloudy
1:54 PM 82.9 °F 86.5 °F 69.1 °F 63% 30.02 in 10.0 mi NNW 9.2 mph 18.4 mph N/A   Partly Cloudy
2:54 PM 80.1 °F 82.9 °F 69.1 °F 69% 30.01 in 10.0 mi NW 11.5 mph - N/A   Clear
3:54 PM 80.1 °F 82.9 °F 69.1 °F 69% 30.01 in 10.0 mi NW 10.4 mph - N/A   Clear
4:54 PM 77.0 °F - 68.0 °F 74% 30.01 in 9.0 mi WNW 9.2 mph - N/A   Clear
5:54 PM 75.9 °F - 68.0 °F 76% 30.02 in 10.0 mi NW 8.1 mph - N/A   Clear
6:54 PM 73.0 °F - 66.9 °F 81% 30.02 in 9.0 mi NNW 5.8 mph - N/A   Clear
7:54 PM 69.1 °F - 66.0 °F 90% 30.00 in 6.0 mi Calm Calm - N/A   Clear
8:26 PM 68.0 °F - 66.2 °F 94% 30.01 in 2.5 mi Calm Calm - N/A   Clear
8:34 PM 66.2 °F - 64.4 °F 94% 30.00 in 5.0 mi Calm Calm - N/A   Clear
8:47 PM 64.4 °F - 62.6 °F 94% 30.00 in 1.8 mi Calm Calm - N/A   Clear
8:54 PM 64.9 °F - 64.0 °F 97% 30.01 in 1.0 mi Calm Calm - N/A   Clear
9:01 PM 64.4 °F - 62.6 °F 94% 30.02 in 0.2 mi Calm Calm - N/A Fog Fog
9:23 PM 64.4 °F - 62.6 °F 94% 30.02 in 1.2 mi Calm Calm - N/A   Clear
9:28 PM 64.4 °F - 62.6 °F 94% 30.02 in 3.0 mi Calm Calm - N/A   Clear
9:30 PM 64.4 °F - 62.6 °F 94% 30.02 in 1.2 mi Calm Calm - N/A   Clear
9:38 PM 64.4 °F - 62.6 °F 94% 30.02 in 1.0 mi Calm Calm - N/A   Clear
9:47 PM 64.4 °F - 62.6 °F 94% 30.03 in 0.8 mi Calm Calm - N/A   Mist
9:54 PM 64.9 °F - 63.0 °F 93% 30.03 in 0.2 mi Calm Calm - N/A Fog Fog
10:54 PM 64.0 °F - 62.1 °F 93% 30.02 in 0.2 mi Calm Calm - N/A Fog Fog
11:54 PM 63.0 °F - 61.0 °F 93% 30.01 in 0.8 mi Calm Calm - N/A   Mist